Flag for Canada Weather past 2 weeks in Longueuil, Quebec, Canada

Now
65 °F

Mild.


Feels Like: 65 °F
Forecast: 63 / 71 °F
Wind: 3 mph from South

Location: Mc Tavish

Current Time: Sep 21, 2014 at 12:07:29 AM

Latest Report: Sep 20, 2014 at 11:00 PM


Visibility: N/A

Pressure: 29.83 "Hg

Humidity: 76%

Dew point: 57 °F

Location of LongueuilLocation

Historic Weather in Longueuil — Graph

°F

Longueuil temperature yesterday

Maximum temperature yesterday: 67 °F (at 3:00 PM)
Minimum temperature yesterday: 49 °F (at 12:00 AM)
Average temperature yesterday: 59 °F

Past Weeks' High & Low Weather Summary

 TemperatureHumidityPressure
High76 °F (Sep 8, 4:00 PM)98% (Sep 13, 7:00 PM)30.42 "Hg (Sep 13, 7:00 PM)
Low39 °F (Sep 19, 5:00 AM)29% (Sep 19, 3:00 PM)29.52 "Hg (Sep 11, 1:00 PM)
Average58 °F69%30.08 "Hg
* Reported Sep 5 11:00 PM — Sep 20 11:00 PM, Longueuil, Weather by CustomWeather, © 2014

Note: Actual official high and low records may vary slightly from our data, if they occured in-between our weather recording intervals... More about our weather records

Advertising

Longueuil weather history for previous 24 hours

 ConditionsComfort  
Time TempWeatherWind HumidityBarometerVisibility
11:00 PM
Sep 20
65 °FMild.3 mph76%29.83 "HgN/A
10:00 PM65 °FMild.2 mph76%29.84 "HgN/A
9:00 PM65 °FMild.5 mph74%29.85 "HgN/A
8:00 PM65 °FMild.5 mph75%29.85 "HgN/A
7:00 PM65 °FMild.6 mph73%29.84 "HgN/A
6:00 PM67 °FMild.3 mph69%29.89 "HgN/A
5:00 PM67 °FMild.2 mph68%29.90 "HgN/A
4:00 PM67 °FMild.5 mph67%29.91 "HgN/A
3:00 PM67 °FMild.3 mph65%29.92 "HgN/A
2:00 PM65 °FMild.2 mph67%29.94 "HgN/A
1:00 PM62 °FMild.6 mph68%29.96 "HgN/A
9:00 AM55 °FCool.3 mph73%30.03 "HgN/A
8:00 AM53 °FCool.3 mph74%30.05 "HgN/A
7:00 AM52 °FCool.5 mph74%30.08 "HgN/A
6:00 AM51 °FCool.5 mph73%30.09 "HgN/A
5:00 AM51 °FCool.5 mph70%30.10 "HgN/A
4:00 AM51 °FCool.5 mph69%30.12 "HgN/A
3:00 AM51 °FCool.5 mph66%30.15 "HgN/A
2:00 AM50 °FCool.3 mph63%30.17 "HgN/A
1:00 AM49 °FCool.5 mph58%30.19 "HgN/A
12:00 AM49 °FCool.6 mph60%30.19 "HgN/A
Weather by CustomWeather, © 2014

See weather overviewHow to use our weather pages